Superior, WI

5:27 AM CDT on May 27, 2018 (GMT -0500)
Bong

Weather History for KSUW - April, 2013

Change the Weather History Date:

Thursday, April 18, 2013

  Actual Average Record
Temperature  
Mean Temperature 32 °F -  
Max Temperature 34 °F 47 °F 75 °F (1952)
Min Temperature 30 °F 32 °F 12 °F (1983)
Degree Days  
Heating Degree Days 33    
Moisture  
Dew Point 31 °F    
Average Humidity 95    
Maximum Humidity 100    
Minimum Humidity 80    
Precipitation  
Precipitation 0.59 in - - ()
Sea Level Pressure  
Sea Level Pressure 29.76 in    
Wind  
Wind Speed 10 mph (NE)    
Max Wind Speed 17 mph    
Max Gust Speed 26 mph    
Visibility 3 miles    
Events Snow    
Averages and records for this station are not official NWS values.
T = Trace of Precipitation, MM = Missing Value Source: NWS Daily Summary

Daily Weather History Graph

Daily Weather History Graph

Search for Another Location

Airport or City:

Astronomy

Apr. 18, 2013 Rise Set
Actual Time 6:15 AM CDT 8:00 PM CDT
Civil Twilight 5:43 AM CDT 8:33 PM CDT
Nautical Twilight 5:03 AM CDT 9:12 PM CDT
Astronomical Twilight 4:21 AM CDT 9:55 PM CDT
Moon 12:23 PM CDT (4/18) 2:20 AM CDT (4/18)
Length of Visible Light 14h 50m
Length of Day
13h 45m
First Quarter, 52% of the Moon is Illuminated
Apr 18
First Quarter
Apr 25
Full
May 2
Last Quarter
May 9
New
May 17
First Quarter

Hourly Weather History & Observations

Time (CDT) Temp. Windchill Dew Point Humidity Pressure Visibility Wind Dir Wind Speed Gust Speed Precip Events Conditions
12:15 AM 30.2 °F 18.5 °F 29.1 °F 96% 30.04 in 2.5 mi NE 17.3 mph 26.5 mph N/A Snow Light Snow
12:35 AM 30.2 °F 20.2 °F 29.3 °F 96% 30.03 in 2.0 mi NE 12.7 mph 18.4 mph 0.01 in Snow Light Snow
1:15 AM 30.2 °F 21.3 °F 29.1 °F 96% 30.03 in 3.0 mi NE 10.4 mph 16.1 mph N/A Snow Light Snow
1:35 AM 30.2 °F 20.8 °F 29.1 °F 96% 30.01 in 4.0 mi NE 11.5 mph 20.7 mph N/A Snow Light Snow
1:55 AM 30.0 °F 20.0 °F 28.8 °F 95% 29.99 in 2.5 mi NE 12.7 mph 19.6 mph 0.01 in Snow Light Snow
2:15 AM 30.0 °F 21.1 °F 28.9 °F 96% 29.97 in 2.5 mi NE 10.4 mph 18.4 mph N/A Snow Light Snow
2:35 AM 30.0 °F 21.1 °F 29.1 °F 96% 29.96 in 2.5 mi NE 10.4 mph - 0.01 in Snow Light Snow
2:55 AM 30.2 °F 21.9 °F 29.3 °F 96% 29.94 in 2.5 mi NE 9.2 mph 17.3 mph 0.01 in Snow Light Snow
3:15 AM 30.2 °F 22.6 °F 29.3 °F 96% 29.94 in 3.0 mi NE 8.1 mph - N/A Snow Light Snow
3:35 AM 30.2 °F 23.4 °F 29.7 °F 98% 29.92 in 2.5 mi NE 6.9 mph - N/A Snow Light Snow
3:55 AM 30.7 °F 24.1 °F 30.0 °F 97% 29.93 in 2.0 mi NE 6.9 mph - N/A Snow Light Snow
4:15 AM 30.7 °F 24.1 °F 30.0 °F 97% 29.92 in 3.0 mi NE 6.9 mph - N/A   Overcast
4:35 AM 30.7 °F 23.3 °F 30.2 °F 98% 29.90 in 4.0 mi NE 8.1 mph - N/A Snow Light Snow
4:55 AM 30.9 °F 22.8 °F 30.2 °F 97% 29.89 in 4.0 mi NE 9.2 mph - N/A Snow Light Snow
5:15 AM 31.1 °F 24.5 °F 30.2 °F 96% 29.89 in 4.0 mi NNE 6.9 mph - N/A Snow Light Snow
5:35 AM 31.1 °F 25.4 °F 30.2 °F 96% 29.88 in 4.0 mi NNE 5.8 mph - N/A   Overcast
5:55 AM 31.1 °F 26.4 °F 30.6 °F 98% 29.87 in 3.0 mi NNE 4.6 mph - N/A   Overcast
6:15 AM 31.1 °F 24.5 °F 30.2 °F 96% 29.88 in 1.8 mi NNE 6.9 mph - 0.01 in   Overcast
6:35 AM 31.1 °F 25.4 °F 30.4 °F 97% 29.88 in 1.0 mi NNE 5.8 mph - 0.01 in Snow Light Snow
6:55 AM 31.1 °F 23.7 °F 30.4 °F 97% 29.87 in 1.2 mi NNE 8.1 mph - 0.02 in Snow Light Snow
7:15 AM 31.1 °F 23.7 °F 30.2 °F 96% 29.86 in 1.2 mi NNE 8.1 mph - N/A   Overcast
7:35 AM 31.1 °F 24.5 °F 30.2 °F 96% 29.85 in 1.8 mi NNE 6.9 mph - N/A   Overcast
7:55 AM 31.1 °F 23.1 °F 30.2 °F 96% 29.84 in 1.8 mi NNE 9.2 mph - N/A Snow Light Snow
8:15 AM 31.1 °F 23.1 °F 30.0 °F 96% 29.84 in 2.0 mi NNE 9.2 mph 17.3 mph N/A Snow Light Snow
8:35 AM 31.5 °F 23.5 °F 29.7 °F 93% 29.84 in 2.5 mi NNE 9.2 mph 16.1 mph N/A Snow Light Snow
8:55 AM 31.8 °F 22.8 °F 29.3 °F 90% 29.82 in 2.5 mi NNE 11.5 mph 16.1 mph N/A Snow Light Snow
9:15 AM 31.8 °F 22.3 °F 29.3 °F 90% 29.81 in 2.5 mi NNE 12.7 mph - N/A Snow Light Snow
9:35 AM 32.0 °F 23.0 °F 29.7 °F 91% 29.80 in 3.0 mi NNE 11.5 mph 17.3 mph N/A Snow Light Snow
9:55 AM 32.0 °F 23.6 °F 29.3 °F 90% 29.79 in 3.0 mi NNE 10.4 mph 18.4 mph N/A   Overcast
10:15 AM 32.7 °F 23.9 °F 29.3 °F 87% 29.79 in 7.0 mi NNE 11.5 mph - N/A   Overcast
10:35 AM 33.3 °F 25.1 °F 28.9 °F 84% 29.79 in 10.0 mi NNE 10.4 mph 17.3 mph N/A   Overcast
10:55 AM 33.8 °F 25.8 °F 28.8 °F 82% 29.77 in 10.0 mi NNE 10.4 mph 17.3 mph N/A   Overcast
11:15 AM 34.2 °F 26.2 °F 28.9 °F 81% 29.75 in 10.0 mi NNE 10.4 mph 18.4 mph N/A   Overcast
11:35 AM 34.7 °F 26.9 °F 29.1 °F 80% 29.75 in 10.0 mi NE 10.4 mph - N/A   Overcast
11:55 AM 34.7 °F 26.9 °F 29.3 °F 81% 29.75 in 10.0 mi NE 10.4 mph 18.4 mph N/A   Overcast
12:15 PM 34.7 °F 26.4 °F 29.7 °F 82% 29.72 in 10.0 mi NE 11.5 mph 18.4 mph N/A   Overcast
12:35 PM 34.3 °F 26.5 °F 30.2 °F 85% 29.73 in 10.0 mi NE 10.4 mph 16.1 mph N/A   Overcast
12:55 PM 33.8 °F 28.6 °F 30.2 °F 87% 29.74 in 10.0 mi ENE 5.8 mph - N/A   Overcast
1:15 PM 33.8 °F 25.8 °F 30.9 °F 89% 29.75 in 10.0 mi ENE 10.4 mph - N/A Snow Light Snow
1:35 PM 32.9 °F 24.1 °F 31.5 °F 94% 29.72 in 2.0 mi ENE 11.5 mph - 0.01 in Snow Light Snow
1:55 PM 32.2 °F 23.2 °F 31.6 °F 98% 29.71 in 1.0 mi ENE 11.5 mph - 0.02 in Snow Light Snow
2:15 PM 32.0 °F 25.6 °F 31.8 °F 99% 29.72 in 0.5 mi ENE 6.9 mph - 0.03 in Snow Light Snow
2:35 PM 32.0 °F 24.2 °F 31.8 °F 99% 29.70 in 1.2 mi ENE 9.2 mph - 0.04 in Snow Light Snow
2:55 PM 32.0 °F 24.8 °F 31.8 °F 99% 29.70 in 1.5 mi ENE 8.1 mph - 0.05 in Snow Light Snow
3:35 PM 32.0 °F 26.4 °F 32.0 °F 100% 29.70 in 0.8 mi NE 5.8 mph - 0.04 in Snow Light Snow
3:55 PM 32.0 °F 23.6 °F 32.0 °F 100% 29.66 in 0.8 mi NE 10.4 mph - 0.06 in Snow Light Snow
4:15 PM 32.0 °F 26.4 °F 32.0 °F 100% 29.65 in 0.5 mi NE 5.8 mph - 0.02 in Snow Snow
4:35 PM 32.0 °F 26.4 °F 32.0 °F 100% 29.64 in 1.2 mi NE 5.8 mph - 0.04 in Snow Light Snow
4:55 PM 32.0 °F 26.4 °F 32.0 °F 100% 29.64 in 1.2 mi NE 5.8 mph - 0.06 in Snow Light Snow
5:15 PM 32.0 °F 25.6 °F 32.0 °F 100% 29.62 in 1.0 mi NE 6.9 mph - 0.01 in Snow Light Snow
5:35 PM 32.0 °F 25.6 °F 32.0 °F 100% 29.59 in 0.8 mi NNE 6.9 mph - 0.04 in Snow Light Snow
5:55 PM 32.0 °F 26.4 °F 32.0 °F 100% 29.60 in 0.5 mi NNE 5.8 mph - 0.06 in Snow Snow
6:15 PM 32.0 °F 25.6 °F 32.0 °F 100% 29.59 in 1.0 mi NNE 6.9 mph - 0.03 in Snow Light Snow
6:35 PM 32.0 °F 24.8 °F 32.0 °F 100% 29.59 in 0.8 mi NNE 8.1 mph - 0.06 in Snow Light Snow
6:55 PM 32.0 °F 25.6 °F 32.0 °F 100% 29.59 in 0.8 mi NNE 6.9 mph - 0.10 in Snow Light Snow
7:15 PM 32.0 °F 28.7 °F 32.0 °F 100% 29.59 in 0.8 mi ENE 3.5 mph - 0.02 in Snow Light Snow
7:35 PM 32.0 °F 24.8 °F 32.0 °F 100% 29.57 in 0.5 mi NE 8.1 mph - 0.06 in Snow Light Snow
7:55 PM 32.0 °F 23.6 °F 32.0 °F 100% 29.54 in 0.8 mi NE 10.4 mph - 0.09 in Snow Light Snow
8:15 PM 32.0 °F 24.2 °F 32.0 °F 100% 29.59 in 1.2 mi NE 9.2 mph 17.3 mph 0.02 in Snow Light Snow
8:35 PM 32.0 °F 22.5 °F 32.0 °F 100% 29.56 in 2.0 mi NE 12.7 mph - 0.02 in Snow Light Snow
9:55 PM 32.0 °F 23.6 °F 31.8 °F 99% 29.52 in 0.8 mi NE 10.4 mph 18.4 mph 0.05 in Snow Snow
10:35 PM 32.0 °F 22.5 °F 31.5 °F 98% 29.51 in 1.0 mi NE 12.7 mph 18.4 mph 0.01 in Snow Snow
10:55 PM 32.0 °F 22.1 °F 31.3 °F 97% 29.51 in 1.0 mi NNE 13.8 mph 19.6 mph 0.01 in Snow Snow
11:15 PM 31.8 °F 23.9 °F 31.1 °F 97% 29.51 in 1.2 mi NNE 9.2 mph 16.1 mph N/A Snow Light Snow
11:35 PM 31.8 °F 23.9 °F 30.9 °F 96% 29.50 in 2.0 mi North 9.2 mph - 0.02 in Snow Light Snow
11:55 PM 31.8 °F 23.9 °F 30.0 °F 93% 29.49 in 2.5 mi NNE 9.2 mph - 0.03 in   Overcast